Time,TemperatureF,DewpointF,PressureIn,WindDirection,WindDirectionDegrees,WindSpeedMPH,WindSpeedGustMPH,Humidity,HourlyPrecipIn,Conditions,Clouds,dailyrainin,SoftwareType,DateUTC
2013-08-30 00:01:00,78.1,75.9,29.95,WSW,246,0.0,19.0,93,0.00,,---,0.00,VWS V12.08,2013-08-30 04:01:00,
2013-08-30 00:02:00,78.1,75.9,29.95,WSW,246,0.0,19.0,93,0.00,,---,0.00,VWS V12.08,2013-08-30 04:02:00,
2013-08-30 00:03:00,78.1,75.9,29.95,WSW,246,0.0,19.0,93,0.00,,---,0.00,VWS V12.08,2013-08-30 04:03:00,
2013-08-30 00:08:00,77.8,75.0,29.95,WSW,246,0.0,19.0,91,0.00,,---,0.00,VWS V12.08,2013-08-30 04:08:00,
2013-08-30 00:13:00,77.6,74.8,29.95,WSW,246,0.0,19.0,91,0.00,,---,0.00,VWS V12.08,2013-08-30 04:13:00,
2013-08-30 00:18:00,77.7,75.2,29.96,WSW,246,1.0,19.0,92,0.00,,---,0.00,VWS V12.08,2013-08-30 04:18:00,
2013-08-30 00:23:00,77.8,75.0,29.96,SW,225,0.0,19.0,91,0.00,,---,0.00,VWS V12.08,2013-08-30 04:23:00,
2013-08-30 00:28:00,77.5,74.7,29.96,SSW,205,1.0,19.0,91,0.00,,---,0.00,VWS V12.08,2013-08-30 04:28:00,
2013-08-30 00:33:00,77.3,74.5,29.96,SSW,203,0.0,19.0,91,0.00,,---,0.00,VWS V12.08,2013-08-30 04:33:00,
2013-08-30 00:38:00,77.1,74.3,29.96,SSW,203,0.0,19.0,91,0.00,,---,0.00,VWS V12.08,2013-08-30 04:38:00,
2013-08-30 00:43:00,76.8,74.0,29.96,SSW,203,5.0,19.0,91,0.00,,---,0.00,VWS V12.08,2013-08-30 04:43:00,
2013-08-30 00:48:00,76.6,73.8,29.96,SSW,203,0.0,19.0,91,0.00,,---,0.00,VWS V12.08,2013-08-30 04:48:00,
2013-08-30 00:53:00,76.6,73.8,29.96,SSW,203,0.0,19.0,91,0.00,,---,0.00,VWS V12.08,2013-08-30 04:53:00,
2013-08-30 00:58:00,76.5,74.0,29.96,SSW,203,2.0,19.0,92,0.00,,---,0.00,VWS V12.08,2013-08-30 04:58:00,
2013-08-30 01:03:00,76.4,73.9,29.96,SSW,203,0.0,19.0,92,0.00,,---,0.00,VWS V12.08,2013-08-30 05:03:00,
2013-08-30 01:08:00,76.4,73.9,29.96,SSW,203,0.0,19.0,92,0.00,,---,0.00,VWS V12.08,2013-08-30 05:08:00,
2013-08-30 01:13:00,76.4,73.9,29.96,SSW,203,3.0,19.0,92,0.00,,---,0.00,VWS V12.08,2013-08-30 05:13:00,
2013-08-30 01:18:00,76.4,74.2,29.96,SSW,203,0.0,19.0,93,0.00,,---,0.00,VWS V12.08,2013-08-30 05:18:00,
2013-08-30 01:23:00,76.5,74.3,29.96,SSW,203,0.0,19.0,93,0.00,,---,0.00,VWS V12.08,2013-08-30 05:23:00,
2013-08-30 01:28:00,76.5,74.3,29.95,SSW,203,4.0,19.0,93,0.00,,---,0.00,VWS V12.08,2013-08-30 05:28:00,
2013-08-30 01:33:00,76.5,74.3,29.96,SSW,203,3.0,19.0,93,0.00,,---,0.00,VWS V12.08,2013-08-30 05:33:00,
2013-08-30 01:38:00,76.5,74.3,29.95,SSW,203,2.0,19.0,93,0.00,,---,0.00,VWS V12.08,2013-08-30 05:38:00,
2013-08-30 01:43:00,76.5,74.3,29.95,SSW,203,4.0,19.0,93,0.00,,---,0.00,VWS V12.08,2013-08-30 05:43:00,
2013-08-30 01:48:00,76.4,74.6,29.95,SSW,203,3.0,19.0,94,0.00,,---,0.00,VWS V12.08,2013-08-30 05:48:00,
2013-08-30 01:53:00,76.3,74.4,29.95,SSW,203,3.0,19.0,94,0.00,,---,0.00,VWS V12.08,2013-08-30 05:53:00,
2013-08-30 01:58:00,76.3,74.4,29.94,SSW,203,4.0,19.0,94,0.00,,---,0.00,VWS V12.08,2013-08-30 05:58:00,
2013-08-30 02:03:00,76.3,74.4,29.94,SSW,203,2.0,19.0,94,0.00,,---,0.00,VWS V12.08,2013-08-30 06:03:00,
2013-08-30 02:08:00,76.2,74.3,29.94,SSW,207,3.0,19.0,94,0.00,,---,0.00,VWS V12.08,2013-08-30 06:08:00,
2013-08-30 02:13:00,76.2,74.3,29.94,SSW,211,4.0,19.0,94,0.00,,---,0.00,VWS V12.08,2013-08-30 06:13:00,
2013-08-30 02:18:00,76.1,74.2,29.94,SSW,211,0.0,19.0,94,0.00,,---,0.00,VWS V12.08,2013-08-30 06:18:00,
2013-08-30 02:23:00,76.0,74.2,29.94,SSW,211,2.0,19.0,94,0.00,,---,0.00,VWS V12.08,2013-08-30 06:23:00,
2013-08-30 02:28:00,75.9,73.7,29.94,SSW,211,1.0,19.0,93,0.00,,---,0.00,VWS V12.08,2013-08-30 06:28:00,
2013-08-30 02:33:00,75.8,73.6,29.94,SSW,211,0.0,19.0,93,0.00,,---,0.00,VWS V12.08,2013-08-30 06:33:00,
2013-08-30 02:38:00,75.7,73.5,29.94,SSW,211,0.0,19.0,93,0.00,,---,0.00,VWS V12.08,2013-08-30 06:38:00,
2013-08-30 02:43:00,75.7,73.5,29.94,SSW,211,0.0,19.0,93,0.00,,---,0.00,VWS V12.08,2013-08-30 06:43:00,
2013-08-30 02:48:00,75.6,73.4,29.94,SSW,211,0.0,19.0,93,0.00,,---,0.00,VWS V12.08,2013-08-30 06:48:00,
2013-08-30 02:53:00,75.5,73.3,29.94,SSW,211,0.0,19.0,93,0.00,,---,0.00,VWS V12.08,2013-08-30 06:53:00,
2013-08-30 02:58:00,75.4,73.2,29.94,SSW,211,0.0,19.0,93,0.00,,---,0.00,VWS V12.08,2013-08-30 06:58:00,
2013-08-30 03:03:00,75.3,73.1,29.93,SSW,211,0.0,19.0,93,0.00,,---,0.00,VWS V12.08,2013-08-30 07:03:00,
2013-08-30 03:08:00,75.2,73.0,29.93,SSW,211,0.0,19.0,93,0.00,,---,0.00,VWS V12.08,2013-08-30 07:08:00,
2013-08-30 03:13:00,75.1,72.9,29.93,SSW,211,0.0,19.0,93,0.00,,---,0.00,VWS V12.08,2013-08-30 07:13:00,
2013-08-30 03:18:00,75.0,73.2,29.93,SSW,211,0.0,19.0,94,0.00,,---,0.00,VWS V12.08,2013-08-30 07:18:00,
2013-08-30 03:23:00,74.9,73.1,29.93,SSW,211,0.0,19.0,94,0.00,,---,0.00,VWS V12.08,2013-08-30 07:23:00,
2013-08-30 03:28:00,74.8,73.0,29.93,SSW,211,0.0,19.0,94,0.00,,---,0.00,VWS V12.08,2013-08-30 07:28:00,
2013-08-30 03:33:00,74.8,73.0,29.93,SSW,211,0.0,19.0,94,0.00,,---,0.00,VWS V12.08,2013-08-30 07:33:00,
2013-08-30 03:38:00,74.7,72.9,29.93,SSW,211,0.0,19.0,94,0.00,,---,0.00,VWS V12.08,2013-08-30 07:38:00,
2013-08-30 03:43:00,74.6,72.8,29.93,SSW,211,0.0,19.0,94,0.00,,---,0.00,VWS V12.08,2013-08-30 07:43:00,
2013-08-30 03:48:00,74.6,72.8,29.93,SSW,211,0.0,19.0,94,0.00,,---,0.00,VWS V12.08,2013-08-30 07:48:00,
2013-08-30 03:53:00,74.5,72.7,29.93,SSW,211,0.0,19.0,94,0.00,,---,0.00,VWS V12.08,2013-08-30 07:53:00,
2013-08-30 03:58:00,74.4,72.6,29.92,SSW,211,0.0,19.0,94,0.00,,---,0.00,VWS V12.08,2013-08-30 07:58:00,
2013-08-30 04:03:00,74.4,72.6,29.92,SSW,211,0.0,19.0,94,0.00,,---,0.00,VWS V12.08,2013-08-30 08:03:00,
2013-08-30 04:08:00,74.3,72.5,29.92,SSW,211,0.0,19.0,94,0.00,,---,0.00,VWS V12.08,2013-08-30 08:08:00,
2013-08-30 04:13:00,74.2,72.4,29.92,SSW,211,0.0,19.0,94,0.00,,---,0.00,VWS V12.08,2013-08-30 08:13:00,
2013-08-30 04:18:00,74.2,72.4,29.92,SSW,211,0.0,19.0,94,0.00,,---,0.00,VWS V12.08,2013-08-30 08:18:00,
2013-08-30 04:23:00,74.1,72.3,29.92,SSW,211,0.0,19.0,94,0.00,,---,0.00,VWS V12.08,2013-08-30 08:23:00,
2013-08-30 04:28:00,74.0,72.2,29.92,SSW,211,0.0,19.0,94,0.00,,---,0.00,VWS V12.08,2013-08-30 08:28:00,
2013-08-30 04:33:00,74.0,72.2,29.92,SSW,211,0.0,19.0,94,0.00,,---,0.00,VWS V12.08,2013-08-30 08:33:00,
2013-08-30 04:38:00,73.9,72.1,29.91,SSW,211,0.0,19.0,94,0.00,,---,0.00,VWS V12.08,2013-08-30 08:38:00,
2013-08-30 04:43:00,73.8,72.3,29.91,SSW,211,0.0,19.0,95,0.00,,---,0.00,VWS V12.08,2013-08-30 08:43:00,
2013-08-30 04:48:00,73.7,72.2,29.91,SSW,211,0.0,19.0,95,0.00,,---,0.00,VWS V12.08,2013-08-30 08:48:00,
2013-08-30 04:53:00,73.6,72.1,29.91,SSW,211,0.0,19.0,95,0.00,,---,0.00,VWS V12.08,2013-08-30 08:53:00,
2013-08-30 04:58:00,73.5,71.7,29.92,SSW,211,0.0,19.0,94,0.00,,---,0.00,VWS V12.08,2013-08-30 08:58:00,
2013-08-30 05:03:00,73.4,71.9,29.91,SSW,211,0.0,19.0,95,0.00,,---,0.00,VWS V12.08,2013-08-30 09:03:00,
2013-08-30 05:08:00,73.4,71.9,29.92,SSW,211,0.0,19.0,95,0.00,,---,0.00,VWS V12.08,2013-08-30 09:08:00,
2013-08-30 05:13:00,73.3,71.8,29.92,SSW,211,0.0,19.0,95,0.00,,---,0.00,VWS V12.08,2013-08-30 09:13:00,
2013-08-30 05:18:00,73.3,71.8,29.91,SSW,211,0.0,19.0,95,0.00,,---,0.00,VWS V12.08,2013-08-30 09:18:00,
2013-08-30 05:23:00,73.3,71.8,29.91,SSW,211,0.0,19.0,95,0.00,,---,0.00,VWS V12.08,2013-08-30 09:23:00,
2013-08-30 05:28:00,73.3,71.8,29.91,SSW,211,0.0,19.0,95,0.00,,---,0.00,VWS V12.08,2013-08-30 09:28:00,
2013-08-30 05:33:00,73.2,71.7,29.91,SSW,211,0.0,19.0,95,0.00,,---,0.00,VWS V12.08,2013-08-30 09:33:00,
2013-08-30 05:38:00,73.1,71.6,29.91,SSW,211,0.0,19.0,95,0.00,,---,0.00,VWS V12.08,2013-08-30 09:38:00,
2013-08-30 05:43:00,73.0,71.5,29.91,SSW,211,0.0,19.0,95,0.00,,---,0.00,VWS V12.08,2013-08-30 09:43:00,
2013-08-30 05:48:00,72.9,71.4,29.91,SSW,211,0.0,19.0,95,0.00,,---,0.00,VWS V12.08,2013-08-30 09:48:00,
2013-08-30 05:53:00,72.8,71.3,29.91,SSW,211,0.0,19.0,95,0.00,,---,0.00,VWS V12.08,2013-08-30 09:53:00,
2013-08-30 05:58:00,72.8,71.3,29.91,SSW,211,0.0,19.0,95,0.00,,---,0.00,VWS V12.08,2013-08-30 09:58:00,
2013-08-30 06:03:00,72.8,71.3,29.91,SSW,211,0.0,19.0,95,0.00,,---,0.00,VWS V12.08,2013-08-30 10:03:00,
2013-08-30 06:08:00,72.7,71.2,29.92,SSW,211,0.0,19.0,95,0.00,,---,0.00,VWS V12.08,2013-08-30 10:08:00,
2013-08-30 06:13:00,72.6,71.1,29.92,SSW,211,0.0,19.0,95,0.00,,---,0.00,VWS V12.08,2013-08-30 10:13:00,
2013-08-30 06:18:00,72.6,71.1,29.92,SSW,211,0.0,19.0,95,0.00,,---,0.00,VWS V12.08,2013-08-30 10:18:00,
2013-08-30 06:23:00,72.6,71.4,29.92,SSW,211,0.0,19.0,96,0.00,,---,0.00,VWS V12.08,2013-08-30 10:23:00,
2013-08-30 06:28:00,72.6,71.1,29.92,SSW,211,0.0,19.0,95,0.00,,---,0.00,VWS V12.08,2013-08-30 10:28:00,
2013-08-30 06:33:00,72.6,71.1,29.92,SSW,211,0.0,19.0,95,0.00,,---,0.00,VWS V12.08,2013-08-30 10:33:00,
2013-08-30 06:38:00,72.5,71.3,29.92,SSW,211,0.0,19.0,96,0.00,,---,0.00,VWS V12.08,2013-08-30 10:38:00,
2013-08-30 06:43:00,72.6,71.4,29.92,SSW,211,0.0,19.0,96,0.00,,---,0.00,VWS V12.08,2013-08-30 10:43:00,
2013-08-30 06:48:00,72.5,71.3,29.92,SSW,211,0.0,19.0,96,0.00,,---,0.00,VWS V12.08,2013-08-30 10:48:00,
2013-08-30 06:53:00,72.4,71.2,29.92,SSW,211,0.0,19.0,96,0.00,,---,0.00,VWS V12.08,2013-08-30 10:53:00,
2013-08-30 06:58:00,72.5,71.3,29.93,SSW,211,0.0,19.0,96,0.00,,---,0.00,VWS V12.08,2013-08-30 10:58:00,
2013-08-30 07:03:00,72.5,71.3,29.93,SSW,211,0.0,19.0,96,0.00,,---,0.00,VWS V12.08,2013-08-30 11:03:00,
2013-08-30 07:08:00,72.5,71.3,29.93,SSW,211,0.0,19.0,96,0.00,,---,0.00,VWS V12.08,2013-08-30 11:08:00,
2013-08-30 07:13:00,72.6,71.4,29.93,SSW,211,0.0,19.0,96,0.00,,---,0.00,VWS V12.08,2013-08-30 11:13:00,
2013-08-30 07:18:00,72.6,71.4,29.93,SSW,211,0.0,19.0,96,0.00,,---,0.00,VWS V12.08,2013-08-30 11:18:00,
2013-08-30 07:23:00,72.6,71.4,29.93,SSW,211,0.0,19.0,96,0.00,,---,0.00,VWS V12.08,2013-08-30 11:23:00,
2013-08-30 07:28:00,72.6,71.4,29.93,SSW,211,0.0,19.0,96,0.00,,---,0.00,VWS V12.08,2013-08-30 11:28:00,
2013-08-30 07:33:00,72.6,71.4,29.94,SSW,211,0.0,19.0,96,0.00,,---,0.00,VWS V12.08,2013-08-30 11:33:00,
2013-08-30 07:38:00,72.8,71.6,29.94,SSW,211,0.0,19.0,96,0.00,,---,0.00,VWS V12.08,2013-08-30 11:38:00,
2013-08-30 07:43:00,73.0,72.1,29.94,SSW,211,0.0,19.0,97,0.00,,---,0.00,VWS V12.08,2013-08-30 11:43:00,
2013-08-30 07:48:00,73.2,72.3,29.94,SSW,211,0.0,19.0,97,0.00,,---,0.00,VWS V12.08,2013-08-30 11:48:00,
2013-08-30 07:53:00,73.5,72.6,29.94,SSW,211,0.0,19.0,97,0.00,,---,0.00,VWS V12.08,2013-08-30 11:53:00,
2013-08-30 07:58:00,74.0,73.1,29.94,SSW,211,0.0,19.0,97,0.00,,---,0.00,VWS V12.08,2013-08-30 11:58:00,
2013-08-30 08:03:00,74.5,73.6,29.95,SSW,211,0.0,19.0,97,0.00,,---,0.00,VWS V12.08,2013-08-30 12:03:00,
2013-08-30 08:08:00,75.1,74.2,29.95,SSW,198,0.0,19.0,97,0.00,,---,0.00,VWS V12.08,2013-08-30 12:08:00,
2013-08-30 08:13:00,75.5,74.6,29.95,SSW,198,0.0,19.0,97,0.00,,---,0.00,VWS V12.08,2013-08-30 12:13:00,
2013-08-30 08:18:00,76.1,75.2,29.95,SSW,198,0.0,19.0,97,0.00,,---,0.00,VWS V12.08,2013-08-30 12:18:00,
2013-08-30 08:23:00,76.8,75.9,29.95,SSW,198,0.0,19.0,97,0.00,,---,0.00,VWS V12.08,2013-08-30 12:23:00,
2013-08-30 08:28:00,77.4,76.5,29.95,SSW,198,0.0,19.0,97,0.00,,---,0.00,VWS V12.08,2013-08-30 12:28:00,
2013-08-30 08:33:00,77.9,76.7,29.95,SSW,198,0.0,19.0,96,0.00,,---,0.00,VWS V12.08,2013-08-30 12:33:00,
2013-08-30 08:38:00,78.4,76.8,29.95,SSW,198,0.0,19.0,95,0.00,,---,0.00,VWS V12.08,2013-08-30 12:38:00,
2013-08-30 08:43:00,78.8,77.2,29.95,SSW,197,0.0,19.0,95,0.00,,---,0.00,VWS V12.08,2013-08-30 12:43:00,
2013-08-30 08:48:00,79.2,77.3,29.95,SSE,168,0.0,19.0,94,0.00,,---,0.00,VWS V12.08,2013-08-30 12:48:00,
2013-08-30 08:53:00,79.5,77.6,29.96,SSE,159,0.0,19.0,94,0.00,,---,0.00,VWS V12.08,2013-08-30 12:53:00,
2013-08-30 08:58:00,79.9,77.7,29.95,SSE,159,0.0,19.0,93,0.00,,---,0.00,VWS V12.08,2013-08-30 12:58:00,
2013-08-30 09:03:00,80.3,78.1,29.96,South,175,0.0,19.0,93,0.00,,---,0.00,VWS V12.08,2013-08-30 13:03:00,
2013-08-30 09:08:00,80.9,78.7,29.96,South,175,0.0,19.0,93,0.00,,---,0.00,VWS V12.08,2013-08-30 13:08:00,
2013-08-30 09:13:00,81.4,78.9,29.95,South,175,0.0,19.0,92,0.00,,---,0.00,VWS V12.08,2013-08-30 13:13:00,
2013-08-30 09:18:00,81.9,78.7,29.95,South,175,0.0,19.0,90,0.00,,---,0.00,VWS V12.08,2013-08-30 13:18:00,
2013-08-30 09:23:00,82.1,78.9,29.96,South,175,0.0,19.0,90,0.00,,---,0.00,VWS V12.08,2013-08-30 13:23:00,
2013-08-30 09:28:00,82.4,78.8,29.95,South,175,0.0,19.0,89,0.00,,---,0.00,VWS V12.08,2013-08-30 13:28:00,
2013-08-30 09:33:00,82.6,78.7,29.96,South,175,0.0,19.0,88,0.00,,---,0.00,VWS V12.08,2013-08-30 13:33:00,
2013-08-30 09:38:00,83.0,79.1,29.96,SSW,203,3.0,19.0,88,0.00,,---,0.00,VWS V12.08,2013-08-30 13:38:00,
2013-08-30 09:43:00,83.2,78.9,29.96,SSW,204,0.0,19.0,87,0.00,,---,0.00,VWS V12.08,2013-08-30 13:43:00,
2013-08-30 09:48:00,83.5,78.9,29.96,SSW,204,3.0,19.0,86,0.00,,---,0.00,VWS V12.08,2013-08-30 13:48:00,
2013-08-30 09:53:00,83.8,79.2,29.96,SSW,204,0.0,19.0,86,0.00,,---,0.00,VWS V12.08,2013-08-30 13:53:00,
2013-08-30 09:58:00,84.3,79.7,29.96,SSW,204,0.0,19.0,86,0.00,,---,0.00,VWS V12.08,2013-08-30 13:58:00,
2013-08-30 10:03:00,84.7,79.3,29.96,SSW,204,0.0,19.0,84,0.00,,---,0.00,VWS V12.08,2013-08-30 14:03:00,
2013-08-30 10:08:00,84.9,78.8,29.96,SSW,207,4.0,19.0,82,0.00,,---,0.00,VWS V12.08,2013-08-30 14:08:00,
2013-08-30 10:13:00,85.0,78.9,29.96,SSW,211,0.0,19.0,82,0.00,,---,0.00,VWS V12.08,2013-08-30 14:13:00,
2013-08-30 10:18:00,85.0,78.9,29.96,SSW,212,0.0,19.0,82,0.00,,---,0.00,VWS V12.08,2013-08-30 14:18:00,
2013-08-30 10:23:00,85.3,79.6,29.96,SW,215,0.0,19.0,83,0.00,,---,0.00,VWS V12.08,2013-08-30 14:23:00,
2013-08-30 10:28:00,85.4,78.5,29.96,SW,229,0.0,19.0,80,0.00,,---,0.00,VWS V12.08,2013-08-30 14:28:00,
2013-08-30 10:33:00,85.6,78.3,29.96,SW,232,0.0,19.0,79,0.00,,---,0.00,VWS V12.08,2013-08-30 14:33:00,
2013-08-30 10:38:00,86.1,79.6,29.96,SW,231,0.0,19.0,81,0.00,,---,0.00,VWS V12.08,2013-08-30 14:38:00,
2013-08-30 10:43:00,86.4,79.1,29.96,SW,232,0.0,19.0,79,0.00,,---,0.00,VWS V12.08,2013-08-30 14:43:00,
2013-08-30 10:48:00,86.7,78.6,29.96,WNW,300,1.0,19.0,77,0.00,,---,0.00,VWS V12.08,2013-08-30 14:48:00,
2013-08-30 10:53:00,86.7,78.2,29.96,WNW,300,4.0,19.0,76,0.00,,---,0.00,VWS V12.08,2013-08-30 14:53:00,
2013-08-30 10:58:00,86.6,77.3,29.96,WNW,302,0.0,19.0,74,0.00,,---,0.00,VWS V12.08,2013-08-30 14:58:00,
2013-08-30 11:03:00,86.9,78.0,29.96,NW,318,0.0,19.0,75,0.00,,---,0.00,VWS V12.08,2013-08-30 15:03:00,
2013-08-30 11:08:00,87.1,77.4,29.96,NW,319,0.0,19.0,73,0.00,,---,0.00,VWS V12.08,2013-08-30 15:08:00,
2013-08-30 11:13:00,87.2,76.2,29.96,NNW,348,1.0,19.0,70,0.00,,---,0.00,VWS V12.08,2013-08-30 15:13:00,
2013-08-30 11:18:00,87.3,76.3,29.96,NNW,348,1.0,19.0,70,0.00,,---,0.00,VWS V12.08,2013-08-30 15:18:00,
2013-08-30 11:23:00,87.6,77.0,29.96,NNW,348,0.0,19.0,71,0.00,,---,0.00,VWS V12.08,2013-08-30 15:23:00,
2013-08-30 11:28:00,88.0,77.4,29.96,NNW,348,2.0,19.0,71,0.00,,---,0.00,VWS V12.08,2013-08-30 15:28:00,
2013-08-30 11:33:00,88.3,76.8,29.96,NNW,348,0.0,19.0,69,0.00,,---,0.00,VWS V12.08,2013-08-30 15:33:00,
2013-08-30 11:38:00,88.7,76.8,29.96,NNW,348,0.0,19.0,68,0.00,,---,0.00,VWS V12.08,2013-08-30 15:38:00,
2013-08-30 11:43:00,89.2,76.8,29.96,NNW,348,4.0,19.0,67,0.00,,---,0.00,VWS V12.08,2013-08-30 15:43:00,
2013-08-30 11:48:00,89.4,75.6,29.96,NNW,348,0.0,19.0,64,0.00,,---,0.00,VWS V12.08,2013-08-30 15:48:00,
2013-08-30 11:53:00,89.8,76.5,29.96,NNW,329,0.0,19.0,65,0.00,,---,0.00,VWS V12.08,2013-08-30 15:53:00,
2013-08-30 11:58:00,90.1,77.7,29.96,NNW,327,5.0,19.0,67,0.00,,---,0.00,VWS V12.08,2013-08-30 15:58:00,
2013-08-30 12:03:00,90.0,76.2,29.96,WNW,297,0.0,19.0,64,0.00,,---,0.00,VWS V12.08,2013-08-30 16:03:00,
2013-08-30 12:08:00,89.8,76.0,29.95,WNW,292,0.0,19.0,64,0.00,,---,0.00,VWS V12.08,2013-08-30 16:08:00,
2013-08-30 12:13:00,89.9,77.0,29.95,WNW,292,0.0,19.0,66,0.00,,---,0.00,VWS V12.08,2013-08-30 16:13:00,
2013-08-30 12:18:00,90.3,76.0,29.95,WNW,292,0.0,19.0,63,0.00,,---,0.00,VWS V12.08,2013-08-30 16:18:00,
2013-08-30 12:23:00,90.7,75.9,29.96,WNW,292,0.0,19.0,62,0.00,,---,0.00,VWS V12.08,2013-08-30 16:23:00,
2013-08-30 12:28:00,91.0,76.2,29.96,NW,310,5.0,19.0,62,0.00,,---,0.00,VWS V12.08,2013-08-30 16:28:00,
2013-08-30 12:33:00,91.0,75.7,29.95,NW,312,1.0,19.0,61,0.00,,---,0.00,VWS V12.08,2013-08-30 16:33:00,
2013-08-30 12:38:00,91.0,75.7,29.96,NW,317,0.0,19.0,61,0.00,,---,0.00,VWS V12.08,2013-08-30 16:38:00,
2013-08-30 12:43:00,91.0,76.2,29.95,NW,317,0.0,19.0,62,0.00,,---,0.00,VWS V12.08,2013-08-30 16:43:00,
2013-08-30 12:48:00,91.2,74.9,29.95,NNW,329,0.0,19.0,59,0.00,,---,0.00,VWS V12.08,2013-08-30 16:48:00,
2013-08-30 12:53:00,91.4,75.6,29.95,NNW,329,0.0,19.0,60,0.00,,---,0.00,VWS V12.08,2013-08-30 16:53:00,
2013-08-30 12:58:00,91.6,75.2,29.94,NW,325,0.0,19.0,59,0.00,,---,0.00,VWS V12.08,2013-08-30 16:58:00,
2013-08-30 13:03:00,91.4,75.1,29.94,WNW,298,0.0,19.0,59,0.00,,---,0.00,VWS V12.08,2013-08-30 17:03:00,
2013-08-30 13:08:00,91.6,75.8,29.93,WNW,298,2.0,19.0,60,0.00,,---,0.00,VWS V12.08,2013-08-30 17:08:00,
2013-08-30 13:13:00,91.6,74.7,29.93,NW,316,0.0,19.0,58,0.00,,---,0.00,VWS V12.08,2013-08-30 17:13:00,
2013-08-30 13:18:00,91.4,73.5,29.93,NW,316,0.0,19.0,56,0.00,,---,0.00,VWS V12.08,2013-08-30 17:18:00,
2013-08-30 13:23:00,91.4,74.0,29.92,NW,316,0.0,19.0,57,0.00,,---,0.00,VWS V12.08,2013-08-30 17:23:00,
2013-08-30 13:28:00,91.8,75.4,29.92,NW,316,0.0,19.0,59,0.00,,---,0.00,VWS V12.08,2013-08-30 17:28:00,
2013-08-30 13:33:00,92.2,76.8,29.92,NW,316,0.0,19.0,61,0.00,,---,0.00,VWS V12.08,2013-08-30 17:33:00,
2013-08-30 13:38:00,92.5,76.1,29.92,WSW,252,3.0,19.0,59,0.00,,---,0.00,VWS V12.08,2013-08-30 17:38:00,
2013-08-30 13:43:00,92.4,76.0,29.92,SW,228,0.0,19.0,59,0.00,,---,0.00,VWS V12.08,2013-08-30 17:43:00,
2013-08-30 13:48:00,92.6,75.7,29.92,SW,228,3.0,19.0,58,0.00,,---,0.00,VWS V12.08,2013-08-30 17:48:00,
2013-08-30 13:53:00,92.9,75.4,29.92,SW,236,0.0,19.0,57,0.00,,---,0.00,VWS V12.08,2013-08-30 17:53:00,
2013-08-30 13:58:00,93.1,76.1,29.91,SSW,213,1.0,19.0,58,0.00,,---,0.00,VWS V12.08,2013-08-30 17:58:00,
2013-08-30 14:03:00,93.2,75.7,29.91,West,269,4.0,19.0,57,0.00,,---,0.00,VWS V12.08,2013-08-30 18:03:00,
2013-08-30 14:08:00,92.9,75.9,29.91,WNW,284,4.0,19.0,58,0.00,,---,0.00,VWS V12.08,2013-08-30 18:08:00,
2013-08-30 14:13:00,92.8,75.9,29.91,SW,236,0.0,19.0,58,0.00,,---,0.00,VWS V12.08,2013-08-30 18:13:00,
2013-08-30 14:18:00,93.1,76.1,29.90,WSW,242,4.0,19.0,58,0.00,,---,0.00,VWS V12.08,2013-08-30 18:18:00,
2013-08-30 14:23:00,93.2,75.7,29.90,WSW,244,3.0,19.0,57,0.00,,---,0.00,VWS V12.08,2013-08-30 18:23:00,
2013-08-30 14:28:00,93.1,75.6,29.90,WSW,248,0.0,19.0,57,0.00,,---,0.00,VWS V12.08,2013-08-30 18:28:00,
2013-08-30 14:33:00,92.8,73.7,29.90,WSW,254,0.0,19.0,54,0.00,,---,0.00,VWS V12.08,2013-08-30 18:33:00,
2013-08-30 14:38:00,93.0,76.1,29.90,WSW,254,0.0,19.0,58,0.00,,---,0.00,VWS V12.08,2013-08-30 18:38:00,
2013-08-30 14:43:00,93.4,75.9,29.89,WSW,253,2.0,19.0,57,0.00,,---,0.00,VWS V12.08,2013-08-30 18:43:00,
2013-08-30 14:48:00,93.8,74.7,29.89,WSW,253,0.0,19.0,54,0.00,,---,0.00,VWS V12.08,2013-08-30 18:48:00,
2013-08-30 14:53:00,94.1,78.1,29.89,WNW,290,4.0,19.0,60,0.00,,---,0.00,VWS V12.08,2013-08-30 18:53:00,
2013-08-30 14:58:00,94.2,75.6,29.89,West,265,6.0,19.0,55,0.00,,---,0.00,VWS V12.08,2013-08-30 18:58:00,
2013-08-30 15:03:00,94.1,74.9,29.89,WSW,250,4.0,19.0,54,0.00,,---,0.00,VWS V12.08,2013-08-30 19:03:00,
2013-08-30 15:08:00,94.1,76.0,29.89,WSW,249,5.0,19.0,56,0.00,,---,0.00,VWS V12.08,2013-08-30 19:08:00,
2013-08-30 15:13:00,94.0,73.7,29.89,WSW,239,1.0,19.0,52,0.00,,---,0.00,VWS V12.08,2013-08-30 19:13:00,
2013-08-30 15:18:00,93.8,74.1,29.88,WSW,239,0.0,19.0,53,0.00,,---,0.00,VWS V12.08,2013-08-30 19:18:00,
2013-08-30 15:23:00,94.0,74.8,29.88,SW,233,6.0,19.0,54,0.00,,---,0.00,VWS V12.08,2013-08-30 19:23:00,
2013-08-30 15:28:00,94.0,73.7,29.88,SW,232,0.0,19.0,52,0.00,,---,0.00,VWS V12.08,2013-08-30 19:28:00,
2013-08-30 15:33:00,93.9,74.2,29.88,SW,217,0.0,19.0,53,0.00,,---,0.00,VWS V12.08,2013-08-30 19:33:00,
2013-08-30 15:38:00,93.9,73.6,29.88,SW,217,4.0,19.0,52,0.00,,---,0.00,VWS V12.08,2013-08-30 19:38:00,
2013-08-30 15:43:00,94.0,73.7,29.87,SW,217,3.0,19.0,52,0.00,,---,0.00,VWS V12.08,2013-08-30 19:43:00,
2013-08-30 15:48:00,93.8,72.4,29.87,South,188,0.0,19.0,50,0.00,,---,0.00,VWS V12.08,2013-08-30 19:48:00,
2013-08-30 15:53:00,93.6,73.9,29.87,SSW,195,2.0,19.0,53,0.00,,---,0.00,VWS V12.08,2013-08-30 19:53:00,
2013-08-30 15:58:00,93.8,73.5,29.87,SSW,198,0.0,19.0,52,0.00,,---,0.00,VWS V12.08,2013-08-30 19:58:00,
2013-08-30 16:03:00,94.0,76.5,29.86,SSW,198,0.0,19.0,57,0.00,,---,0.00,VWS V12.08,2013-08-30 20:03:00,
2013-08-30 16:08:00,94.1,73.8,29.86,SW,225,2.0,19.0,52,0.00,,---,0.00,VWS V12.08,2013-08-30 20:08:00,
2013-08-30 16:13:00,94.2,74.5,29.86,SW,236,0.0,19.0,53,0.00,,---,0.00,VWS V12.08,2013-08-30 20:13:00,
2013-08-30 16:18:00,94.2,75.6,29.86,WSW,237,0.0,19.0,55,0.00,,---,0.00,VWS V12.08,2013-08-30 20:18:00,
2013-08-30 16:23:00,94.4,74.6,29.86,WSW,242,4.0,19.0,53,0.00,,---,0.00,VWS V12.08,2013-08-30 20:23:00,
2013-08-30 16:28:00,94.3,74.6,29.85,SW,232,1.0,19.0,53,0.00,,---,0.00,VWS V12.08,2013-08-30 20:28:00,
2013-08-30 16:33:00,93.9,74.7,29.85,SW,220,5.0,19.0,54,0.00,,---,0.00,VWS V12.08,2013-08-30 20:33:00,
2013-08-30 16:38:00,94.0,74.3,29.85,South,184,8.0,19.0,53,0.00,,---,0.00,VWS V12.08,2013-08-30 20:38:00,
2013-08-30 16:43:00,93.9,74.2,29.85,NE,56,0.0,19.0,53,0.00,,---,0.00,VWS V12.08,2013-08-30 20:43:00,
2013-08-30 16:48:00,93.9,73.6,29.85,NE,46,0.0,19.0,52,0.00,,---,0.00,VWS V12.08,2013-08-30 20:48:00,
2013-08-30 16:53:00,93.9,75.3,29.85,NE,46,0.0,19.0,55,0.00,,---,0.00,VWS V12.08,2013-08-30 20:53:00,
2013-08-30 16:59:00,93.9,74.7,29.85,NE,46,0.0,19.0,54,0.00,,---,0.00,VWS V12.08,2013-08-30 20:59:00,
2013-08-30 17:04:00,94.3,74.0,29.85,NE,46,0.0,19.0,52,0.00,,---,0.00,VWS V12.08,2013-08-30 21:04:00,
2013-08-30 17:09:00,94.3,74.0,29.85,NE,46,0.0,19.0,52,0.00,,---,0.00,VWS V12.08,2013-08-30 21:09:00,
2013-08-30 17:14:00,94.3,74.0,29.85,NE,46,0.0,19.0,52,0.00,,---,0.00,VWS V12.08,2013-08-30 21:14:00,
2013-08-30 17:19:00,94.4,74.1,29.85,NE,46,4.0,19.0,52,0.00,,---,0.00,VWS V12.08,2013-08-30 21:19:00,
2013-08-30 17:24:00,94.3,73.4,29.85,NE,44,0.0,19.0,51,0.00,,---,0.00,VWS V12.08,2013-08-30 21:24:00,
2013-08-30 17:29:00,94.3,75.1,29.85,NE,44,0.0,19.0,54,0.00,,---,0.00,VWS V12.08,2013-08-30 21:29:00,
2013-08-30 17:34:00,94.4,74.1,29.85,NE,44,0.0,19.0,52,0.00,,---,0.00,VWS V12.08,2013-08-30 21:34:00,
2013-08-30 17:39:00,94.4,75.2,29.85,NE,51,0.0,19.0,54,0.00,,---,0.00,VWS V12.08,2013-08-30 21:39:00,
2013-08-30 17:44:00,94.1,73.8,29.85,NE,51,0.0,19.0,52,0.00,,---,0.00,VWS V12.08,2013-08-30 21:44:00,
2013-08-30 17:49:00,93.9,74.2,29.85,NE,51,0.0,19.0,53,0.00,,---,0.00,VWS V12.08,2013-08-30 21:49:00,
2013-08-30 17:54:00,93.6,74.5,29.85,NE,56,1.0,19.0,54,0.00,,---,0.00,VWS V12.08,2013-08-30 21:54:00,
2013-08-30 17:59:00,93.2,75.2,29.85,ESE,102,2.0,19.0,56,0.00,,---,0.00,VWS V12.08,2013-08-30 21:59:00,
2013-08-30 18:04:00,92.9,75.9,29.85,ESE,109,0.0,19.0,58,0.00,,---,0.00,VWS V12.08,2013-08-30 22:04:00,
2013-08-30 18:09:00,92.8,74.8,29.85,ESE,109,0.0,19.0,56,0.00,,---,0.00,VWS V12.08,2013-08-30 22:09:00,
2013-08-30 18:14:00,92.8,76.4,29.85,ESE,109,0.0,19.0,59,0.00,,---,0.00,VWS V12.08,2013-08-30 22:14:00,
2013-08-30 18:19:00,92.6,75.2,29.86,ESE,109,1.0,19.0,57,0.00,,---,0.00,VWS V12.08,2013-08-30 22:19:00,
2013-08-30 18:24:00,92.2,75.3,29.86,ESE,109,0.0,19.0,58,0.00,,---,0.00,VWS V12.08,2013-08-30 22:24:00,
2013-08-30 18:29:00,91.8,75.4,29.86,ESE,109,0.0,19.0,59,0.00,,---,0.00,VWS V12.08,2013-08-30 22:29:00,
2013-08-30 18:34:00,91.5,75.7,29.86,ESE,109,0.0,19.0,60,0.00,,---,0.00,VWS V12.08,2013-08-30 22:34:00,
2013-08-30 18:39:00,91.3,76.0,29.86,ESE,109,0.0,19.0,61,0.00,,---,0.00,VWS V12.08,2013-08-30 22:39:00,
2013-08-30 18:44:00,91.0,75.7,29.86,ESE,109,0.0,19.0,61,0.00,,---,0.00,VWS V12.08,2013-08-30 22:44:00,
2013-08-30 18:49:00,90.8,76.0,29.86,ESE,109,0.0,19.0,62,0.00,,---,0.00,VWS V12.08,2013-08-30 22:49:00,
2013-08-30 18:54:00,90.6,76.3,29.87,ESE,109,0.0,19.0,63,0.00,,---,0.00,VWS V12.08,2013-08-30 22:54:00,
2013-08-30 18:59:00,90.3,76.0,29.87,ESE,109,6.0,19.0,63,0.00,,---,0.00,VWS V12.08,2013-08-30 22:59:00,
2013-08-30 19:04:00,89.2,75.9,29.87,SSE,147,7.0,19.0,65,0.00,,---,0.00,VWS V12.08,2013-08-30 23:04:00,
2013-08-30 19:09:00,87.9,76.0,29.87,SE,137,9.0,19.0,68,0.00,,---,0.00,VWS V12.08,2013-08-30 23:09:00,
2013-08-30 19:14:00,87.1,76.1,29.87,South,174,6.0,19.0,70,0.00,,---,0.00,VWS V12.08,2013-08-30 23:14:00,
2013-08-30 19:19:00,86.4,75.9,29.87,South,182,10.0,19.0,71,0.00,,---,0.00,VWS V12.08,2013-08-30 23:19:00,
2013-08-30 19:24:00,85.5,75.4,29.87,SSE,162,10.0,19.0,72,0.00,,---,0.00,VWS V12.08,2013-08-30 23:24:00,
2013-08-30 19:29:00,84.7,75.1,29.87,South,182,5.0,19.0,73,0.00,,---,0.00,VWS V12.08,2013-08-30 23:29:00,
2013-08-30 19:34:00,83.9,74.7,29.88,SSW,200,11.0,19.0,74,0.00,,---,0.00,VWS V12.08,2013-08-30 23:34:00,
2013-08-30 19:39:00,83.4,74.7,29.88,South,190,6.0,19.0,75,0.00,,---,0.00,VWS V12.08,2013-08-30 23:39:00,
2013-08-30 19:44:00,82.9,74.2,29.88,South,183,5.0,19.0,75,0.00,,---,0.00,VWS V12.08,2013-08-30 23:44:00,
2013-08-30 19:49:00,82.4,74.1,29.89,SSW,194,3.0,19.0,76,0.00,,---,0.00,VWS V12.08,2013-08-30 23:49:00,
2013-08-30 19:54:00,82.0,74.1,29.88,SSW,205,3.0,19.0,77,0.00,,---,0.00,VWS V12.08,2013-08-30 23:54:00,
2013-08-30 19:59:00,81.6,74.1,29.88,SSW,210,0.0,19.0,78,0.00,,---,0.00,VWS V12.08,2013-08-30 23:59:00,
2013-08-30 20:04:00,81.4,73.9,29.88,SSW,211,3.0,19.0,78,0.00,,---,0.00,VWS V12.08,2013-08-31 00:04:00,
2013-08-30 20:09:00,81.2,74.1,29.89,SSW,202,6.0,19.0,79,0.00,,---,0.00,VWS V12.08,2013-08-31 00:09:00,
2013-08-30 20:14:00,81.1,74.3,29.89,SSW,201,4.0,19.0,80,0.00,,---,0.00,VWS V12.08,2013-08-31 00:14:00,
2013-08-30 20:19:00,80.9,74.5,29.89,SSW,202,0.0,19.0,81,0.00,,---,0.00,VWS V12.08,2013-08-31 00:19:00,
2013-08-30 20:24:00,80.6,75.0,29.88,South,190,4.0,19.0,83,0.00,,---,0.00,VWS V12.08,2013-08-31 00:24:00,
2013-08-30 20:29:00,80.3,75.0,29.89,South,184,4.0,19.0,84,0.00,,---,0.00,VWS V12.08,2013-08-31 00:29:00,
2013-08-30 20:34:00,80.0,74.7,29.89,South,180,3.0,19.0,84,0.00,,---,0.00,VWS V12.08,2013-08-31 00:34:00,
2013-08-30 20:39:00,79.7,74.8,29.89,South,186,5.0,19.0,85,0.00,,---,0.00,VWS V12.08,2013-08-31 00:39:00,
2013-08-30 20:44:00,79.5,74.6,29.89,South,190,3.0,19.0,85,0.00,,---,0.00,VWS V12.08,2013-08-31 00:44:00,
2013-08-30 20:49:00,79.3,74.8,29.89,South,190,0.0,19.0,86,0.00,,---,0.00,VWS V12.08,2013-08-31 00:49:00,
2013-08-30 20:54:00,79.1,74.6,29.89,South,190,0.0,19.0,86,0.00,,---,0.00,VWS V12.08,2013-08-31 00:54:00,
2013-08-30 20:59:00,78.9,74.7,29.89,South,190,0.0,19.0,87,0.00,,---,0.00,VWS V12.08,2013-08-31 00:59:00,
2013-08-30 21:04:00,78.7,74.5,29.90,South,190,0.0,19.0,87,0.00,,---,0.00,VWS V12.08,2013-08-31 01:04:00,
2013-08-30 21:09:00,78.5,74.3,29.90,South,190,0.0,19.0,87,0.00,,---,0.00,VWS V12.08,2013-08-31 01:09:00,
2013-08-30 21:14:00,78.3,74.1,29.90,South,190,0.0,19.0,87,0.00,,---,0.00,VWS V12.08,2013-08-31 01:14:00,
2013-08-30 21:19:00,78.2,74.0,29.90,South,190,0.0,19.0,87,0.00,,---,0.00,VWS V12.08,2013-08-31 01:19:00,
2013-08-30 21:24:00,78.1,74.3,29.90,South,190,0.0,19.0,88,0.00,,---,0.00,VWS V12.08,2013-08-31 01:24:00,
2013-08-30 21:29:00,78.0,74.2,29.90,South,190,0.0,19.0,88,0.00,,---,0.00,VWS V12.08,2013-08-31 01:29:00,
2013-08-30 21:34:00,77.9,74.1,29.91,South,190,0.0,19.0,88,0.00,,---,0.00,VWS V12.08,2013-08-31 01:34:00,
2013-08-30 21:39:00,77.8,74.0,29.91,South,190,0.0,19.0,88,0.00,,---,0.00,VWS V12.08,2013-08-31 01:39:00,
2013-08-30 21:44:00,77.8,74.3,29.91,South,189,0.0,19.0,89,0.00,,---,0.00,VWS V12.08,2013-08-31 01:44:00,
2013-08-30 21:49:00,77.7,74.2,29.91,South,190,0.0,19.0,89,0.00,,---,0.00,VWS V12.08,2013-08-31 01:49:00,
2013-08-30 21:54:00,77.6,74.1,29.91,South,190,0.0,19.0,89,0.00,,---,0.00,VWS V12.08,2013-08-31 01:54:00,
2013-08-30 21:59:00,77.5,74.0,29.91,South,190,0.0,19.0,89,0.00,,---,0.00,VWS V12.08,2013-08-31 01:59:00,
2013-08-30 22:04:00,77.4,73.9,29.91,South,190,0.0,19.0,89,0.00,,---,0.00,VWS V12.08,2013-08-31 02:04:00,
2013-08-30 22:09:00,77.3,74.1,29.91,South,190,0.0,19.0,90,0.00,,---,0.00,VWS V12.08,2013-08-31 02:09:00,
2013-08-30 22:14:00,77.2,74.0,29.91,South,190,0.0,19.0,90,0.00,,---,0.00,VWS V12.08,2013-08-31 02:14:00,
2013-08-30 22:19:00,77.1,73.9,29.91,South,190,0.0,19.0,90,0.00,,---,0.00,VWS V12.08,2013-08-31 02:19:00,
2013-08-30 22:24:00,77.1,74.3,29.91,South,190,0.0,19.0,91,0.00,,---,0.00,VWS V12.08,2013-08-31 02:24:00,
2013-08-30 22:29:00,76.9,74.1,29.91,South,190,0.0,19.0,91,0.00,,---,0.00,VWS V12.08,2013-08-31 02:29:00,
2013-08-30 22:34:00,76.9,74.1,29.91,South,190,0.0,19.0,91,0.00,,---,0.00,VWS V12.08,2013-08-31 02:34:00,
2013-08-30 22:39:00,76.8,74.0,29.91,South,190,0.0,19.0,91,0.00,,---,0.00,VWS V12.08,2013-08-31 02:39:00,
2013-08-30 22:44:00,76.6,73.8,29.91,South,190,0.0,19.0,91,0.00,,---,0.00,VWS V12.08,2013-08-31 02:44:00,
2013-08-30 22:49:00,76.6,74.1,29.91,South,190,0.0,19.0,92,0.00,,---,0.00,VWS V12.08,2013-08-31 02:49:00,
2013-08-30 22:54:00,76.7,74.2,29.91,South,190,0.0,19.0,92,0.00,,---,0.00,VWS V12.08,2013-08-31 02:54:00,
2013-08-30 22:59:00,76.7,74.2,29.91,South,190,0.0,19.0,92,0.00,,---,0.00,VWS V12.08,2013-08-31 02:59:00,
2013-08-30 23:04:00,76.6,73.8,29.91,South,183,0.0,19.0,91,0.00,,---,0.00,VWS V12.08,2013-08-31 03:04:00,
2013-08-30 23:09:00,76.4,73.9,29.91,SSE,155,0.0,19.0,92,0.00,,---,0.00,VWS V12.08,2013-08-31 03:09:00,
2013-08-30 23:14:00,76.4,73.9,29.91,SSE,155,0.0,19.0,92,0.00,,---,0.00,VWS V12.08,2013-08-31 03:14:00,
2013-08-30 23:19:00,76.3,73.8,29.91,SSE,155,0.0,19.0,92,0.00,,---,0.00,VWS V12.08,2013-08-31 03:19:00,
2013-08-30 23:24:00,76.2,73.7,29.91,SSE,155,0.0,19.0,92,0.00,,---,0.00,VWS V12.08,2013-08-31 03:24:00,
2013-08-30 23:29:00,76.2,73.7,29.91,SSE,155,0.0,19.0,92,0.00,,---,0.00,VWS V12.08,2013-08-31 03:29:00,
2013-08-30 23:34:00,76.2,73.7,29.91,SSE,155,0.0,19.0,92,0.00,,---,0.00,VWS V12.08,2013-08-31 03:34:00,
2013-08-30 23:39:00,76.1,73.6,29.92,SSE,155,0.0,19.0,92,0.00,,---,0.00,VWS V12.08,2013-08-31 03:39:00,
2013-08-30 23:44:00,76.0,73.5,29.91,SSE,155,0.0,19.0,92,0.00,,---,0.00,VWS V12.08,2013-08-31 03:44:00,
2013-08-30 23:49:00,75.9,73.4,29.91,SSE,155,0.0,19.0,92,0.00,,---,0.00,VWS V12.08,2013-08-31 03:49:00,
2013-08-30 23:54:00,75.8,73.6,29.91,SSE,155,0.0,19.0,93,0.00,,---,0.00,VWS V12.08,2013-08-31 03:54:00,
2013-08-30 23:59:00,75.7,73.5,29.92,SSE,155,0.0,19.0,93,0.00,,---,0.00,VWS V12.08,2013-08-31 03:59:00,